Location: Kiimaj�rvi
(61.3833°N, 22.7000°E)
Time: 08:06:26
(UTC+00:00)

Daily predictions for brighter satellites

Satellite Brightness Start Highest point End
(mag) Time Altitude Azimuth Time Altitude Azimuth Time Altitude Azimuth
COSMOS 2455 3.9 18:16:35 10° NW 18:22:17 44° SW 18:27:56 10° SSE
Cosmos 1892 3.3 18:19:00 10° N 18:22:44 41° ENE 18:26:27 10° SE
Cosmos 1455 4.3 18:22:43 10° E 18:24:10 12° E 18:25:39 10° ENE
ATLAS 5 CENTAUR R/B 2.6 18:21:48 10° S 18:25:26 26° SE 18:29:29 10° ENE
Cosmos 2333 Rocket 3.8 18:21:30 10° WNW 18:26:36 33° N 18:31:43 10° ENE
Cosmos 1825 3.5 18:24:09 10° N 18:27:21 25° ENE 18:30:32 10° ESE
H-2A R/B 3.3 18:22:29 10° S 18:27:21 43° W 18:32:08 10° NNW
Cosmos 2237 Rocket 3.7 18:22:27 10° W 18:27:44 39° NNW 18:33:04 10° NE
Cosmos 1603 3.7 18:22:29 10° SW 18:28:08 86° SE 18:33:47 10° NE
Cosmos 2251 Rocket 4.0 18:27:58 10° SW 18:33:21 71° NW 18:38:46 10° NNE
Cosmos 1140 Rocket 3.7 18:30:21 10° S 18:35:17 46° ESE 18:40:12 10° NE
ERBS 4.4 18:35:40 10° WSW 18:38:06 18° SSW 18:40:32 10° SSE
Cosmos 2084 3.6 18:35:01 10° WNW 18:39:31 80° NNE 18:43:58 10° E
Cosmos 2360 4.5 18:35:55 10° NW 18:41:37 65° NE 18:47:14 10° ESE
CZ-2C R/B 4.5 18:37:52 10° SSW 18:42:16 36° W 18:46:39 10° NNW
ATLAS CENTAUR R/B 1.2 18:38:16 10° WNW 18:42:21 80° SSW 18:45:59 11° SE
Cosmos 614 Rocket 4.0 18:37:56 10° SSW 18:43:08 70° ESE 18:48:19 10° NE
In-Cosmos 22 Rocket 4.3 18:37:38 10° NNW 18:43:32 85° ENE 18:49:23 10° SSE
Cosmos 841 Rocket 3.7 18:38:56 10° NNW 18:44:14 68° NE 18:49:26 10° SE
Cosmos 2278 3.9 18:39:26 10° NW 18:45:06 64° NE 18:50:35 11° ESE
SL-24 R/B 3.8 18:43:46 10° NNE 18:48:03 71° ESE 18:51:52 10° S
Spot 2 Rocket 3.5 18:42:58 10° SSE 18:48:04 76° ENE 18:53:12 10° NNW
IGS 5A 3.7 18:44:12 10° SE 18:48:15 54° ENE 18:52:20 10° N
Resurs 1-3 4.3 18:44:36 10° S 18:48:56 55° WSW 18:53:17 10° NNW
Cosmos 1190 Rocket 4.1 18:43:58 10° SSW 18:49:11 61° ESE 18:54:24 10° NE
Aureole 1 Rocket 3.7 18:43:52 10° SSW 18:50:31 71° ESE 18:55:33 10° NE
CZ-2C R/B 3.7 18:45:57 10° NNE 18:50:43 71° ESE 18:55:23 10° S
Cosmos 1300 2.8 18:47:09 10° S 18:50:54 54° E 18:54:40 10° NNE
Terra 2.6 18:51:00 11° ESE 18:55:10 38° ENE 18:59:35 10° N
SPOT 5 3.2 18:52:26 12° SE 18:56:17 43° ENE 19:00:26 10° N
NOSS 2-1 (C) 3.9 18:52:17 10° WNW 18:56:17 71° N 19:01:38 10° E
Cosmos 468 Rocket 4.3 18:51:33 10° NW 18:56:43 66° WSW 19:01:49 10° SSE
MetOp-B 4.2 18:52:02 10° SSE 18:57:25 88° WSW 19:02:49 10° NNW
Cosmos 1833 Rocket 4.3 18:57:26 12° SE 18:59:48 15° E 19:02:52 10° ENE
NOSS 2-1 (D) 3.9 18:56:32 10° WNW 19:00:33 72° N 19:05:57 10° E
DMSP B5D2-2 4.0 18:56:33 10° NNE 19:01:48 70° ESE 19:07:01 10° S
Cosmos 2219 Rocket 3.8 18:57:35 10° WNW 19:02:35 31° N 19:07:35 10° ENE
Cosmos 2058 Rocket 3.3 18:58:59 10° SSW 19:03:31 79° WNW 19:08:03 10° NNE
CARTOSAT-1 3.9 19:02:24 13° SE 19:06:07 51° ENE 19:10:21 10° N
Cosmos 1726 Rocket 4.4 19:01:53 10° SSW 19:06:16 56° WNW 19:10:42 10° N
Meteor 2-12 Rocket 4.5 19:00:38 10° NNW 19:06:48 85° ENE 19:12:53 10° SSE
Cosmos 1570 Rocket 4.1 19:03:43 10° NW 19:09:08 82° WSW 19:14:05 12° SSE
Cosmos 1408 2.6 19:05:52 10° N 19:09:30 64° ENE 19:12:35 14° SSE
CZ-4B DEB 4.5 19:06:45 14° SSE 19:09:35 64° ENE 19:12:57 10° NNW
CZ-4C R/B 2.8 19:03:14 10° WNW 19:09:44 78° SSW 19:16:38 14° SE
SL-4 R/B 3.3 19:07:41 10° SW 19:09:55 16° S 19:10:56 15° SSE
RESURS DK-1 2.8 19:06:40 10° NW 19:10:47 59° SW 19:14:21 13° SSE
Cosmos 1726 4.4 19:07:46 10° SW 19:11:04 29° WNW 19:14:23 10° N
ERS-1 Rocket 3.1 19:07:01 12° SE 19:11:37 67° ENE 19:16:38 10° NNW
Cosmos 1766 Rocket 3.9 19:07:40 10° N 19:12:06 53° ENE 19:15:40 15° SE
Okean 3 Rocket 3.7 19:09:03 10° N 19:13:28 61° ENE 19:17:09 14° SSE
Cosmos 2218 Rocket 4.2 19:08:17 10° NNW 19:14:30 76° W 19:20:45 10° S
Cosmos 407 Rocket 3.5 19:09:37 10° SSW 19:14:46 89° NW 19:19:57 10° NE
Cosmos 1340 Rocket 3.3 19:11:05 10° SSW 19:15:06 65° WNW 19:19:07 10° NNE
Cosmos 2058 3.3 19:12:25 10° NNW 19:16:31 64° W 19:20:36 10° S
Cosmos 2228 4.5 19:13:08 10° SW 19:17:16 42° WNW 19:21:29 10° N
MOS 1 Rocket 3.6 19:12:57 10° NNE 19:18:21 86° ESE 19:23:49 10° SSW
Cosmos 676 Rocket 4.0 19:13:10 10° SSW 19:18:23 64° ESE 19:23:34 10° NE
COSMOS 2406 4.1 19:13:58 10° SSE 19:18:43 28° ESE 19:23:29 10° NE
CZ-2C R/B 2.5 19:14:30 10° NNE 19:19:44 80° ESE 19:24:56 10° SSW
Cosmos 1943 3.7 19:16:23 10° WSW 19:22:03 66° NW 19:27:47 10° NE
Resurs 01 Rocket 2.9 19:19:48 10° SSW 19:23:58 40° W 19:28:10 10° NNW
Cosmos 2151 2.9 19:23:19 10° NNW 19:27:34 83° ENE 19:30:59 15° SSE
Cosmos 2369 3.8 19:22:21 10° NW 19:28:01 72° SW 19:32:37 16° SSE
Cosmos 1697 Rocket 2.9 19:22:26 10° NW 19:28:06 71° SW 19:32:44 16° SSE
Cosmos 1812 Rocket 3.5 19:26:35 10° S 19:30:54 71° E 19:35:14 10° NNE
COSMOS 2428 4.3 19:26:29 10° WNW 19:31:38 33° N 19:36:46 10° ENE
SL-24 R/B - RUBIN 2 4.4 19:28:33 10° SW 19:34:31 69° SE 19:41:05 10° ENE
Iridium 2 3.9 19:34:46 10° SSW 19:38:35 72° W 19:42:26 10° N
Cosmos 2181 Rocket 4.0 19:33:38 10° SSW 19:39:52 88° WNW 19:46:05 10° NNE
Cosmos 1954 Rocket 3.9 19:34:45 10° SSW 19:39:59 81° ESE 19:45:13 10° NE
MINOTAUR IV R/B 4.5 19:36:42 10° SSW 19:41:11 77° SE 19:45:41 10° NE
Cosmos 1741 Rocket 4.2 19:42:51 10° S 19:47:59 50° ESE 19:53:08 10° NE
Cosmos 1818 3.7 19:42:44 10° WSW 19:48:13 82° NNW 19:53:44 10° ENE
NOSS 3-3 (A) 4.3 19:42:22 10° WSW 19:48:47 84° NNW 19:56:13 10° ENE
NOSS 3-3 (C) 4.3 19:42:27 10° WSW 19:48:53 84° NNW 19:56:18 10° ENE
Meteor 2-1 Rocket 4.3 19:43:05 10° S 19:49:00 77° ESE 19:54:58 10° NNE
NOSS 2-1 (E) 3.9 19:44:52 10° WNW 19:49:08 84° NNE 19:53:53 15° ESE
SL-16 R/B 2.6 19:44:22 10° NW 19:50:01 58° NE 19:54:20 17° ESE
SL-16 R/B 3.9 19:44:58 10° W 19:50:09 35° NNW 19:55:20 10° NE
Cosmos 2360 Rocket 3.1 19:45:15 10° NW 19:50:38 43° NNE 19:55:47 11° E
Cosmos 540 Rocket 3.9 19:45:34 10° NW 19:50:40 59° WSW 19:54:31 17° S
Landsat 7 4.4 19:46:17 11° S 19:50:44 55° WSW 19:55:27 10° NNW
Cosmos 1408 Rocket 3.6 19:47:02 10° NNW 19:51:31 72° ENE 19:54:16 23° SSE
SeaSat 1 3.5 19:47:51 10° NE 19:52:38 49° NW 19:57:23 10° WSW
Cosmos 1743 Rocket 4.0 19:49:44 10° N 19:54:08 49° ENE 19:56:35 24° SE
Iridium 4 Rocket 3.8 19:50:37 10° NNW 19:54:44 49° W 19:58:45 10° SSW
SPOT 1/Viking Rocket 4.0 19:50:06 12° S 19:54:50 59° WSW 20:00:03 10° NNW
USA 234 4.0 19:49:43 10° E 19:55:04 26° SE 20:00:23 10° SSW
Cosmos 2322 Rocket 2.6 19:51:25 10° NW 19:57:02 57° NE 20:01:15 18° ESE
Cosmos 1980 Rocket 2.3 19:52:40 10° NW 19:58:18 73° SW 20:02:02 22° SSE
Cosmos 1892 4.2 19:54:51 10° NNW 19:58:24 33° W 20:01:54 10° SSW
Cosmos 1455 2.2 19:56:33 20° S 19:59:02 65° E 20:02:53 10° NNE
Nadezhda 3 Rocket 4.1 19:56:45 16° S 20:01:50 59° E 20:07:58 10° NNE
Cosmos 1825 2.6 19:59:26 10° NNW 20:03:11 58° W 20:05:39 20° S
Meteor 2-3 Rocket 3.7 20:03:26 10° NNW 20:09:15 89° ENE 20:13:03 22° SSE
ATLAS 5 CENTAUR R/B 1.7 20:04:55 10° SW 20:09:24 75° SSE 20:14:39 10° ENE
Cosmos 2221 3.7 20:09:47 24° ESE 20:11:00 27° E 20:14:41 10° NNE
Cosmos-2242 2.9 20:08:42 18° S 20:11:52 78° E 20:16:16 10° NNE
Cosmos 2333 Rocket 3.5 20:06:58 10° NW 20:12:14 37° NNE 20:17:30 10° E
Cosmos 2237 Rocket 3.9 20:08:06 10° WNW 20:13:10 32° N 20:18:14 10° ENE
ASTEX 1 3.5 20:10:30 25° SSE 20:13:23 67° ENE 20:18:18 10° N
SAR-Lupe-2 4.4 20:13:22 10° NNE 20:16:53 52° WNW 20:20:22 10° SW
Cosmos 1140 Rocket 4.3 20:12:01 10° WSW 20:17:06 53° NW 20:22:10 10° NNE
Cosmos 1356 Rocket 3.4 20:13:46 16° SSW 20:17:08 86° ESE 20:21:22 10° NNE
Cosmos 2084 3.8 20:14:37 10° WNW 20:18:59 52° SW 20:20:49 30° SSE
Cosmos 2344 4.3 20:11:34 10° WNW 20:20:11 66° SW 20:28:34 21° SE
ATLAS CENTAUR R/B 2.8 20:17:36 10° WNW 20:20:46 23° SW 20:22:10 19° SSW
Cosmos 1821 Rocket 4.4 20:15:15 10° NNW 20:21:34 65° W 20:26:40 16° S
Cosmos 1633 2.9 20:18:15 10° N 20:21:45 50° ENE 20:22:49 36° ESE
Cosmos 1934 Rocket 4.0 20:16:28 10° NNW 20:22:48 87° WSW 20:26:55 23° S
Mayak -0.6 20:23:30 10° NNE 20:27:23 37° E 20:28:23 32° SE
Cosmos 1241 Rocket 4.4 20:21:57 10° WNW 20:28:14 90° SSE 20:32:25 23° ESE
Cosmos 2278 4.4 20:23:47 10° NW 20:29:10 45° WSW 20:32:29 22° S
Cosmos 773 Rocket 4.4 20:25:18 10° NNW 20:30:25 55° NE 20:33:30 23° ESE
EO 1 Del DPAF 4.2 20:27:54 10° NE 20:31:13 28° E 20:31:31 28° ESE
Cosmos 1850 Rocket 3.9 20:26:44 10° SSW 20:31:56 88° ESE 20:37:10 10° NE
Terra 2.3 20:29:53 22° S 20:32:50 54° WSW 20:37:33 10° NNW
Cosmos 1842 Rocket 3.9 20:32:25 34° SE 20:33:47 45° E 20:37:57 10° NNE
Intercosmos 25 3.7 20:33:38 33° E 20:33:48 33° E 20:36:54 10° NNE
SPOT 5 3.6 20:31:39 18° SSW 20:34:29 39° W 20:38:36 10° NNW
Cosmos 2082 Rocket 2.8 20:34:08 28° SSE 20:36:07 37° ESE 20:41:17 10° NE
Sich 1 3.7 20:32:08 10° N 20:36:27 45° ENE 20:38:13 30° ESE
Meteor 2-10 Rocket 3.7 20:33:52 13° SSW 20:38:36 82° WNW 20:44:12 10° NNE
Cosmos 1605 Rocket 3.9 20:34:55 10° NNW 20:41:06 88° E 20:44:40 27° SSE
Cosmos 1833 Rocket 2.8 20:39:02 22° S 20:42:34 53° ESE 20:48:04 10° NE
Cosmos 1869 4.0 20:45:59 34° ESE 20:46:37 37° E 20:50:19 10° NNE
NOSS 2-1 (C) 4.0 20:42:32 10° WNW 20:46:56 66° SSW 20:49:42 30° SE
Cosmos 2219 Rocket 3.2 20:42:26 10° NW 20:47:49 43° NNE 20:53:00 11° E
SL-4 R/B 4.2 20:46:32 10° SW 20:46:33 10° SW 20:46:33 10° SW
Cosmos 1238 Rocket 3.2 20:47:54 10° N 20:50:43 33° ENE 20:51:04 32° E
ERS-1 Rocket 4.4 20:47:00 13° SSW 20:50:50 31° W 20:55:19 10° NNW
NOSS 2-1 (D) 4.0 20:46:47 10° WNW 20:51:11 64° SSW 20:53:51 31° SE
CZ-4C R/B 3.6 20:51:41 10° WNW 20:57:55 38° SW 21:01:48 24° S
Elektron 3 3.7 20:54:55 10° W 20:58:24 61° SSW 20:58:27 61° SSW
CZ-2C R/B 4.4 20:55:12 10° N 20:59:41 30° NW 21:04:10 10° WSW
Cosmos 1500 Rocket 3.8 20:55:56 10° NNW 21:00:13 60° W 21:01:56 34° SSW
ALOS 2 2.9 20:59:27 35° SE 21:01:03 58° ENE 21:05:22 10° NNW
Cosmos 1805 Rocket 3.5 20:57:21 10° NNW 21:01:52 84° ENE 21:03:24 41° SSE
COSMOS 2406 3.2 20:56:43 10° SW 21:02:27 88° SE 21:08:14 10° NE
MTI 3.9 20:59:37 10° NNE 21:02:42 65° WNW 21:03:23 47° SW
Cosmos 1346 Rocket 2.9 21:02:06 10° NNW 21:06:08 70° ENE 21:07:11 46° SE
Cosmos 2237 4.3 21:00:48 10° NW 21:06:34 78° NE 21:09:39 29° SE
Cosmos 1340 2.6 21:03:49 10° NNW 21:07:39 89° ENE 21:08:27 54° SSE
Meteor 1-27 4.2 21:05:11 29° S 21:08:18 76° ESE 21:14:10 10° NNE
Cosmos 44 4.3 21:09:30 24° E 21:09:30 24° E 21:12:03 10° ENE
Cosmos 1697 Rocket 4.5 21:07:05 10° NW 21:11:15 21° WSW 21:14:29 13° SW
JB-3 4.2 21:08:06 10° NNE 21:11:57 66° ESE 21:12:40 52° SSE
Cosmos 1862 3.3 21:08:04 10° NNW 21:12:10 83° ENE 21:13:12 50° SSE
Cosmos 2322 4.1 21:07:53 10° NW 21:13:36 62° NE 21:17:19 22° ESE
Cosmos 1470 Rocket 4.5 21:09:58 10° N 21:14:08 39° ENE 21:15:40 29° ESE
Spot 4 3.9 21:14:42 37° S 21:16:32 70° WSW 21:21:23 10° NNW
COSMOS 2428 3.4 21:11:27 10° NW 21:17:03 51° NNE 21:21:38 15° ESE
Cosmos 1633 Rocket 3.3 21:13:22 10° N 21:17:47 60° ENE 21:19:07 41° SE
Helios 1A 3.1 21:22:25 44° SE 21:23:36 66° ENE 21:27:49 10° NNW
Cosmos 1607 4.3 21:28:01 34° S 21:29:53 44° SE 21:35:46 10° ENE
Cosmos 1818 4.1 21:26:50 10° W 21:32:15 59° N 21:37:40 10° E
SL-16 R/B 2.5 21:28:40 10° NW 21:34:11 52° WSW 21:36:11 35° S
Thor Agena Rocket 3.4 21:29:06 10° NNE 21:34:13 83° ESE 21:36:20 36° SSW
Cosmos 1455 4.4 21:31:54 10° WSW 21:35:03 24° WNW 21:38:14 10° N
Cosmos 2360 Rocket 2.1 21:29:29 10° NW 21:35:09 83° SW 21:37:32 36° SSE
SL-16 R/B 3.9 21:30:32 10° NW 21:35:40 34° NNE 21:40:49 10° ENE
Cosmos 1400 Rocket 2.7 21:36:25 59° SSE 21:37:04 76° ESE 21:41:01 10° NNE
Cosmos 1354 Rocket 4.5 21:37:16 38° SE 21:38:23 43° ESE 21:43:21 10° NE
USA 234 3.4 21:32:53 10° E 21:39:13 49° SSE 21:45:32 10° SW
NOSS 3-3 (A) 4.4 21:33:26 10° WNW 21:40:10 78° N 21:47:55 10° E
NOSS 3-3 (C) 4.4 21:33:31 10° WNW 21:40:16 78° N 21:48:01 10° E
Cosmos 2322 Rocket 2.5 21:35:40 10° NW 21:41:11 53° WSW 21:43:03 37° S
Cosmos 1980 Rocket 3.8 21:37:19 10° NW 21:41:30 22° WSW 21:43:48 17° SW
Cosmos 2061 Rocket 4.0 21:36:41 10° NNW 21:42:58 77° ENE 21:45:52 34° SSE
Helios 1B rocket 4.3 21:42:29 10° NE 21:45:23 18° E 21:45:50 18° E
SME Rocket 4.2 21:43:42 10° NE 21:47:31 27° E 21:47:54 27° ESE
Cosmos 2221 2.9 21:46:37 35° SW 21:48:18 61° WNW 21:52:39 10° N
Cosmos 1459 Rocket 4.0 21:42:25 10° NNW 21:48:50 82° W 21:51:40 36° S
Cosmos 923 Rocket 4.2 21:44:49 10° NNW 21:50:04 68° NE 21:52:31 32° SE
Cosmos 1503 Rocket 4.1 21:51:23 43° SSE 21:52:44 56° ESE 21:57:50 10° NE
ATLAS 5 CENTAUR R/B 2.1 21:49:27 10° W 21:54:12 71° N 21:59:49 10° E
Cosmos 1633 4.2 21:53:29 10° NW 21:56:22 23° W 21:56:58 22° WSW
Cosmos 2333 Rocket 2.3 21:51:36 10° NW 21:57:17 76° NE 22:00:26 27° SE
Cosmos 2237 Rocket 3.1 21:52:56 10° NW 21:58:27 48° NNE 22:03:57 10° ESE
Cosmos 2233 Rocket 4.3 21:53:52 10° NNW 22:00:08 61° ENE 22:03:16 30° SE
Cosmos 1606 3.7 21:59:56 33° E 22:00:10 33° E 22:03:42 10° NNE
Mayak -0.3 21:59:07 10° N 22:03:04 43° WNW 22:04:57 26° WSW
deb Kosmos-1763 4.0 22:03:20 66° SW 22:03:48 83° NW 22:07:31 10° NNE
Nimbus 7 Rocket 4.4 21:59:25 10° NNE 22:05:21 73° ESE 22:07:44 38° S
EO 1 Del DPAF 3.9 22:01:46 10° N 22:05:27 49° WNW 22:06:33 36° WSW
Cosmos 1680 Rocket 3.7 22:01:08 10° NNW 22:06:23 71° NE 22:08:52 32° SE
Cosmos 1666 Rocket 3.9 22:03:10 10° NNW 22:07:24 52° W 22:08:19 44° SW
Cosmos 1933 Rocket 3.6 22:03:10 10° NNW 22:07:38 73° ENE 22:08:45 49° SE
Cosmos 1727 Rocket 4.0 22:05:50 32° SSW 22:08:59 81° WNW 22:15:23 10° NNE
Cosmos 1515 Rocket 4.5 22:08:14 32° ESE 22:08:59 34° E 22:12:56 10° NNE
Cosmos 2016 Rocket 4.0 22:02:35 10° NNW 22:09:00 82° W 22:11:42 37° S
SL-16 R/B 3.7 22:03:38 10° ESE 22:09:14 38° NE 22:14:53 10° NNW
Cosmos 1725 Rocket 4.0 22:03:47 10° NNW 22:10:10 89° ENE 22:12:55 37° SSE
Cosmos 1538 Rocket 4.2 22:05:47 10° NW 22:11:00 59° WSW 22:12:30 43° S
Terra 4.2 22:09:30 10° WSW 22:11:42 13° W 22:13:53 10° NW
Sich 1 4.0 22:10:00 10° NNW 22:14:07 37° W 22:15:11 32° WSW
Cosmos 1802 Rocket 4.1 22:09:29 10° NNW 22:15:41 68° W 22:18:13 37° SSW
Cosmos 2100 Rocket 4.3 22:11:57 10° NNW 22:18:00 55° W 22:20:40 33° SSW
Cosmos 2082 Rocket 2.3 22:15:56 20° SW 22:19:55 75° NW 22:25:39 10° NE
IRAS Rocket 4.3 22:19:54 36° SSE 22:22:21 82° ENE 22:28:02 10° NNW
Cosmos 1933 3.7 22:22:12 46° ESE 22:22:37 48° E 22:26:31 10° NNE
NOSS 0 Rocket 4.1 22:16:36 10° NW 22:22:48 74° NE 22:27:35 18° ESE
Cosmos 1869 4.4 22:21:30 29° WSW 22:22:53 39° WNW 22:26:42 10° N
Cosmos 2173 Rocket 4.3 22:17:51 10° NNW 22:23:46 53° W 22:26:17 33° SSW
SL-08 R/B 4.5 22:18:29 10° NNW 22:24:42 77° W 22:27:19 38° S
Cosmos 1328 Rocket 3.6 22:24:38 53° SE 22:25:22 63° E 22:29:40 10° NNE
Cosmos 1486 Rocket 4.2 22:22:40 28° SW 22:25:28 71° NW 22:30:48 10° NNE
Cosmos 1833 Rocket 3.3 22:21:00 10° WSW 22:26:35 57° NW 22:32:10 10° NE
Cosmos 968 Rocket 3.5 22:25:39 35° SW 22:27:57 83° NW 22:33:17 10° NE
Cosmos 2123 Rocket 4.1 22:25:54 36° SSE 22:28:23 64° E 22:34:31 10° NNE
Meteor 1-25 Rocket 4.2 22:23:01 10° NNW 22:28:49 79° WSW 22:31:00 40° S
Cosmos 1238 Rocket 3.9 22:27:38 10° NW 22:29:58 25° W 22:29:58 25° W
Cosmos 158 Rocket 4.0 22:25:05 10° NW 22:30:26 80° NE 22:32:43 34° SE
SJ 16-02 3.5 22:30:22 13° ESE 22:31:10 14° E 22:33:25 10° ENE
Cosmos 2219 Rocket 2.1 22:26:38 10° NW 22:32:17 82° SW 22:34:41 36° SSE
Cosmos 1315 Rocket 2.8 22:31:48 58° SW 22:32:32 81° WNW 22:36:43 10° NNE
SL-27 R/B 2.3 22:36:26 82° N 22:36:26 82° N 22:39:43 10° NNE
ALOS 2 3.7 22:36:50 28° WSW 22:37:40 30° W 22:41:35 10° NNW
CZ-4 R/B 4.4 22:36:48 10° NNE 22:41:36 49° E 22:43:00 38° SE
Resurs 1-4 Rocket 4.2 22:41:49 10° NE 22:45:15 17° E 22:48:17 11° ESE
Meteor 1-11 Rocket 4.5 22:39:28 10° NNW 22:45:17 52° ENE 22:49:20 20° SE
DELTA 2 DEB (DPAF) 4.5 22:45:26 36° SE 22:47:06 61° ENE 22:51:31 10° NNW
COSMOS 2406 4.4 22:41:55 10° W 22:47:21 42° NNW 22:52:49 10° NE
Spot 1 3.9 22:47:36 53° SSE 22:48:33 84° ENE 22:52:40 10° NNW
Cosmos 44 2.9 22:47:52 46° SW 22:49:08 84° SSE 22:53:32 10° ENE
Cosmos 1782 3.5 22:50:21 38° ESE 22:50:54 41° E 22:54:39 10° NNE
Cosmos 2112 Rocket 3.9 22:46:09 10° NW 22:51:23 77° WSW 22:53:12 41° SSE
Cosmos 1470 Rocket 4.1 22:47:56 10° NNW 22:52:06 42° W 22:52:49 39° WSW
Cosmos 1777 Rocket 4.2 22:52:13 42° SSE 22:53:41 58° ESE 22:58:51 10° NE
Cosmos 1733 Rocket 4.2 22:49:41 10° N 22:53:52 39° ENE 22:56:11 22° ESE
Cosmos 1633 Rocket 4.4 22:51:33 10° NNW 22:55:19 28° W 22:56:12 26° WSW
Cosmos 1151 Rocket 3.0 22:55:27 53° SSW 22:56:25 78° WNW 23:00:45 10° NNE
Cosmos 2322 4.0 22:52:17 10° NW 22:57:46 48° WSW 22:59:14 39° SSW
Cosmos 2228 Rocket 3.5 22:56:52 42° SE 22:58:02 54° E 23:02:30 10° NNE
Helios 1A 4.4 22:59:02 25° WSW 22:59:34 25° W 23:03:06 10° NW
COSMOS 2428 2.7 22:55:54 10° NW 23:01:34 63° WSW 23:03:37 39° S
Meteor 1-26 Rocket 4.4 22:59:19 37° S 23:01:35 66° E 23:07:14 10° NNE
Cosmos 1980 3.7 22:56:21 10° NW 23:02:05 82° NE 23:06:15 19° SE
Landsat 4 4.0 22:59:42 10° NNE 23:03:29 59° WNW 23:04:11 49° WSW
Cosmos 1441 Rocket 3.1 23:00:58 10° NNW 23:04:43 62° WSW 23:04:53 61° WSW
Meteor 1-14 Rocket 4.4 22:59:43 10° NNW 23:05:42 68° W 23:08:00 38° S
Meteor 1-29 3.3 23:03:42 10° NNE 23:07:04 50° ESE 23:07:10 50° ESE
Cosmos 724 4.3 23:06:36 39° SSW 23:08:42 63° SE 23:14:26 10° ENE
Cosmos 1812 4.3 23:13:21 22° ESE 23:14:26 26° E 23:17:41 10° NNE
Cosmos 1818 3.7 23:10:49 10° WNW 23:16:19 78° NNE 23:21:47 10° ESE
Cosmos 1607 3.9 23:12:04 18° WSW 23:16:50 86° NNW 23:23:12 10° ENE
SL-16 R/B 4.1 23:14:06 10° WNW 23:17:06 15° W 23:18:02 14° WSW
Cosmos 839 Rocket 4.3 23:14:56 35° SSW 23:17:42 61° SE 23:25:02 10° NE
CZ-2D R/B 3.7 23:13:47 10° NNE 23:18:27 27° E 23:21:40 16° SE
Cosmos 2360 Rocket 3.3 23:13:59 10° NW 23:18:31 26° WSW 23:19:17 25° WSW
Cosmos 1354 Rocket 4.5 23:17:37 26° WSW 23:20:31 57° NW 23:25:44 10° NNE
SL-16 R/B 2.8 23:15:11 10° NW 23:20:49 59° NE 23:26:26 10° ESE
Cosmos 1184 Rocket 3.8 23:17:46 10° N 23:20:58 42° ENE 23:21:51 34° ESE
Helios 1B rocket 2.3 23:17:07 10° NNE 23:21:15 89° WNW 23:22:09 54° SSW
Meteor 2-20 4.4 23:19:36 36° SSW 23:22:22 89° WNW 23:28:36 10° NNE
Cosmos 2034 Rocket 4.3 23:16:09 10° NNW 23:22:33 69° ENE 23:26:51 22° SSE
USA 234 3.2 23:16:25 10° E 23:22:55 63° S 23:29:26 10° W
COSMOS 2487 2.3 23:23:25 69° SE 23:23:30 69° ESE 23:26:58 10° NE
Cosmos 2322 Rocket 4.0 23:20:58 10° WNW 23:24:04 15° W 23:24:52 15° WSW
Cosmos 1869 Rocket 3.8 23:25:11 10° NNW 23:29:35 56° W 23:30:33 45° SW
Cosmos 1602 4.4 23:25:56 10° NNW 23:29:37 39° W 23:29:54 38° WSW
Genesis I 3.3 23:29:39 54° SSE 23:29:51 55° SE 23:33:42 10° ENE
NOSS 3-3 (A) 4.3 23:24:20 10° WNW 23:31:21 72° SSW 23:39:17 10° SE
NOSS 3-3 (C) 4.3 23:24:26 10° WNW 23:31:26 72° SSW 23:39:23 10° SE
Cosmos 1500 3.0 23:29:07 10° NNW 23:32:54 80° WSW 23:33:27 62° S
Cosmos 405 Rocket 2.8 23:29:53 10° NNW 23:33:37 67° ENE 23:34:44 42° SE
Cosmos 1606 3.6 23:34:56 35° WSW 23:35:51 41° WNW 23:39:35 10° N
MOS 1-B Rocket 4.4 23:30:36 10° NNE 23:36:30 63° WNW 23:40:21 26° SW
Meteor 2-11 Rocket 4.4 23:30:32 10° NNW 23:36:40 73° W 23:39:38 32° S
Mayak 1.4 23:35:52 10° NNW 23:37:46 13° NW 23:39:39 10° WNW
ATLAS 5 CENTAUR R/B 2.1 23:34:06 10° WNW 23:39:10 87° NNE 23:45:11 10° ESE
ERS-2 3.6 23:36:29 14° ESE 23:39:13 34° ENE 23:42:34 10° N
Cosmos 1891 Rocket 4.4 23:33:43 10° NNW 23:40:00 79° W 23:43:12 30° S
Cosmos 2333 Rocket 2.8 23:36:09 10° NW 23:41:16 36° WSW 23:42:25 33° SW
IKONOS-2 4.4 23:40:53 41° SSE 23:42:20 87° WSW 23:46:38 10° NNW
Cosmos 2237 Rocket 2.1 23:37:12 10° NW 23:42:52 70° SW 23:46:25 24° SSE
SL-19 R/B 4.3 23:40:32 32° S 23:43:16 69° WSW 23:48:52 10° NNW
Cosmos 1833 4.3 23:41:33 35° SSW 23:44:00 70° SE 23:49:44 10° NE
SME Rocket 3.8 23:40:10 10° NNE 23:44:41 46° NW 23:46:10 31° WSW
Cosmos 1515 Rocket 4.1 23:45:21 35° WSW 23:46:45 48° WNW 23:51:01 10° N
Cosmos 1680 Rocket 4.3 23:43:34 10° NW 23:48:14 33° WSW 23:49:10 31° SW
MOZ.5/SAFIR/RUBIN 5/SL-8 3.8 23:48:43 37° S 23:50:35 72° WSW 23:55:23 10° NNW
PSLV R/B 3.8 23:46:46 10° NNE 23:51:14 70° WNW 23:52:52 39° SW
Cosmos 1536 2.7 23:48:05 10° NNW 23:52:07 85° ENE 23:53:28 40° SSE
SL-16 R/B 2.5 23:48:42 25° SSE 23:52:32 78° WSW 23:58:48 10° NNW
NOSS 7 (D) 4.1 23:52:55 65° N 23:52:55 65° N 23:55:32 10° ENE
Cosmos 1707 Rocket 3.8 23:51:41 36° SSE 23:53:23 63° E 23:57:48 10° NNE
Lacrosse 5 rocket 2.4 23:54:19 26° SE 23:54:19 26° SE 23:57:05 10° E
